| time (UTC) | temp F | wind direction | speed MPH | gust MPH | rain 1hr in | rain 24hr in | rain mn in | humidity % | barometer mb |
| 20260906230100 | 63 | 338 | 2.0 | 7.0 | 0.00 | 0.06 | 0.03 | 75 | 1016.3 |
| 20260906224545 | 63 | 356 | 3.0 | 10.0 | 0.00 | 0.06 | 0.03 | 75 | 1016.4 |
| 20260906223053 | 63 | 45 | 5.0 | 9.0 | 0.00 | 0.06 | 0.03 | 75 | 1016.5 |
| 20260906221545 | 63 | 60 | 7.0 | 12.0 | 0.00 | 0.06 | 0.03 | 75 | 1016.6 |
| 20260906220047 | 62 | 22 | 8.0 | 13.0 | 0.00 | 0.06 | 0.03 | 76 | 1016.6 |
| 20260906214546 | 63 | 36 | 8.0 | 14.0 | 0.00 | 0.06 | 0.03 | 75 | 1016.5 |
| 20260906213049 | 63 | 31 | 9.0 | 15.0 | 0.00 | 0.06 | 0.03 | 75 | 1016.5 |
| 20260906211545 | 63 | 28 | 10.0 | 15.0 | 0.00 | 0.06 | 0.03 | 74 | 1016.4 |
| 20260906210046 | 63 | 50 | 11.0 | 15.0 | 0.00 | 0.06 | 0.03 | 75 | 1016.5 |
| 20260906204543 | 63 | 5 | 9.0 | 14.0 | 0.00 | 0.06 | 0.03 | 75 | 1016.5 |
| 20260906203041 | 62 | 20 | 10.0 | 16.0 | 0.00 | 0.06 | 0.03 | 75 | 1016.6 |
| 20260906201613 | 62 | 21 | 9.0 | 17.0 | 0.00 | 0.06 | 0.03 | 74 | 1016.8 |
| 20260906200045 | 62 | 14 | 10.0 | 17.0 | 0.00 | 0.06 | 0.03 | 73 | 1016.9 |
| 20260906194556 | 62 | 32 | 11.0 | 18.0 | 0.00 | 0.06 | 0.03 | 72 | 1016.8 |
| 20260906193046 | 63 | 1 | 9.0 | 19.0 | 0.00 | 0.06 | 0.03 | 71 | 1016.8 |
| 20260906191544 | 63 | 18 | 12.0 | 22.0 | 0.00 | 0.06 | 0.03 | 70 | 1016.7 |
| 20260906190043 | 62 | 24 | 16.0 | 26.0 | 0.00 | 0.06 | 0.03 | 70 | 1016.5 |
| 20260906184547 | 62 | 351 | 17.0 | 26.0 | 0.01 | 0.06 | 0.03 | 69 | 1016.4 |
| 20260906183054 | 61 | 358 | 21.0 | 26.0 | 0.01 | 0.06 | 0.03 | 69 | 1016.6 |
| 20260906181550 | 59 | 45 | 15.0 | 22.0 | 0.01 | 0.06 | 0.03 | 75 | 1017.1 |
| 20260906180049 | 58 | 354 | 12.0 | 17.0 | 0.01 | 0.06 | 0.03 | 79 | 1017.1 |
| 20260906174603 | 57 | 50 | 8.0 | 12.0 | 0.00 | 0.05 | 0.02 | 83 | 1017.4 |
| 20260906173045 | 58 | 290 | 10.0 | 17.0 | 0.00 | 0.05 | 0.02 | 80 | 1018.6 |
| 20260906171544 | 58 | 339 | 14.0 | 19.0 | 0.00 | 0.05 | 0.02 | 76 | 1018.6 |
| 20260906170040 | 58 | 345 | 13.0 | 20.0 | 0.00 | 0.05 | 0.02 | 77 | 1018.5 |
| 20260906164545 | 58 | 345 | 10.0 | 18.0 | 0.02 | 0.05 | 0.02 | 80 | 1018.7 |
| 20260906163050 | 57 | 333 | 14.0 | 17.0 | 0.02 | 0.05 | 0.02 | 81 | 1018.6 |
| 20260906161548 | 57 | 321 | 5.0 | 12.0 | 0.02 | 0.05 | 0.02 | 84 | 1018.4 |
| 20260906160049 | 58 | 84 | 3.0 | 6.0 | 0.02 | 0.05 | 0.02 | 85 | 1018.5 |
| 20260906154545 | 58 | 19 | 3.0 | 11.0 | 0.00 | 0.03 | 0.00 | 84 | 1018.9 |
| 20260906153057 | 57 | 36 | 4.0 | 9.0 | 0.00 | 0.03 | 0.00 | 85 | 1018.8 |
| 20260906151543 | 56 | 299 | 5.0 | 13.0 | 0.00 | 0.03 | 0.00 | 85 | 1019.0 |
| 20260906150047 | 55 | 294 | 12.0 | 21.0 | 0.00 | 0.03 | 0.00 | 85 | 1019.4 |
| 20260906144543 | 58 | 274 | 12.0 | 16.0 | 0.00 | 0.04 | 0.00 | 83 | 1019.9 |
| 20260906143042 | 58 | 35 | 13.0 | 18.0 | 0.00 | 0.04 | 0.00 | 84 | 1018.8 |
| 20260906141543 | 58 | 73 | 12.0 | 18.0 | 0.00 | 0.04 | 0.00 | 84 | 1018.8 |
| 20260906140050 | 58 | 20 | 11.0 | 18.0 | 0.00 | 0.04 | 0.00 | 84 | 1018.9 |
| 20260906134548 | 58 | 31 | 11.0 | 17.0 | 0.00 | 0.07 | 0.00 | 85 | 1018.6 |
| 20260906133052 | 57 | 25 | 12.0 | 20.0 | 0.00 | 0.07 | 0.00 | 86 | 1018.5 |
| 20260906131543 | 57 | 40 | 11.0 | 16.0 | 0.00 | 0.07 | 0.00 | 86 | 1018.5 |
| 20260906130055 | 56 | 24 | 11.0 | 18.0 | 0.00 | 0.07 | 0.00 | 87 | 1018.9 |
| 20260906124542 | 56 | 27 | 10.0 | 22.0 | 0.00 | 0.07 | 0.00 | 86 | 1018.9 |
| 20260906123048 | 56 | 21 | 13.0 | 20.0 | 0.00 | 0.07 | 0.00 | 86 | 1018.6 |
| 20260906121548 | 56 | 27 | 12.0 | 18.0 | 0.00 | 0.07 | 0.00 | 87 | 1019.0 |
| 20260906120046 | 56 | 353 | 11.0 | 18.0 | 0.00 | 0.07 | 0.00 | 86 | 1019.1 |
| 20260906114539 | 57 | 8 | 13.0 | 20.0 | 0.00 | 0.07 | 0.00 | 86 | 1019.3 |
| 20260906113046 | 56 | 8 | 12.0 | 18.0 | 0.00 | 0.07 | 0.00 | 86 | 1019.1 |
| 20260906111555 | 56 | 16 | 13.0 | 19.0 | 0.00 | 0.07 | 0.00 | 86 | 1019.0 |
| 20260906110044 | 56 | 17 | 14.0 | 20.0 | 0.00 | 0.07 | 0.00 | 85 | 1018.9 |
| 20260906104543 | 56 | 18 | 13.0 | 19.0 | 0.00 | 0.07 | 0.00 | 85 | 1019.1 |
| 20260906103045 | 56 | 13 | 14.0 | 23.0 | 0.00 | 0.07 | 0.00 | 85 | 1018.9 |
| 20260906101544 | 56 | 12 | 14.0 | 24.0 | 0.00 | 0.07 | 0.00 | 84 | 1019.4 |
| 20260906100044 | 56 | 341 | 16.0 | 23.0 | 0.00 | 0.07 | 0.00 | 85 | 1018.9 |
| 20260906094539 | 55 | 352 | 15.0 | 25.0 | 0.00 | 0.07 | 0.00 | 85 | 1018.9 |
| 20260906093054 | 56 | 2 | 18.0 | 28.0 | 0.00 | 0.07 | 0.00 | 86 | 1019.3 |
| 20260906091544 | 56 | 327 | 15.0 | 22.0 | 0.00 | 0.07 | 0.00 | 86 | 1019.9 |
| 20260906090052 | 56 | 345 | 15.0 | 28.0 | 0.00 | 0.07 | 0.00 | 86 | 1020.2 |
| 20260906084551 | 56 | 347 | 18.0 | 26.0 | 0.00 | 0.07 | 0.00 | 86 | 1019.6 |
| 20260906083045 | 56 | 2 | 17.0 | 25.0 | 0.00 | 0.07 | 0.00 | 85 | 1019.5 |
| 20260906081551 | 56 | 5 | 14.0 | 24.0 | 0.00 | 0.07 | 0.00 | 83 | 1019.8 |
| 20260906080045 | 56 | 359 | 16.0 | 24.0 | 0.00 | 0.07 | 0.00 | 83 | 1019.6 |
| 20260906074547 | 57 | 356 | 17.0 | 28.0 | 0.00 | 0.07 | 0.00 | 82 | 1019.7 |
| 20260906073055 | 57 | 6 | 18.0 | 26.0 | 0.00 | 0.07 | 0.00 | 82 | 1019.7 |
| 20260906071545 | 57 | 6 | 18.0 | 26.0 | 0.00 | 0.07 | 0.00 | 82 | 1020.0 |
| 20260906070054 | 57 | 1 | 16.0 | 24.0 | 0.00 | 0.07 | 0.00 | 83 | 1020.3 |
| 20260906064546 | 57 | 15 | 18.0 | 25.0 | 0.00 | 0.07 | 0.00 | 82 | 1020.6 |
| 20260906063046 | 57 | 2 | 17.0 | 26.0 | 0.00 | 0.07 | 0.00 | 82 | 1020.5 |
| 20260906061600 | 57 | 32 | 18.0 | 25.0 | 0.00 | 0.07 | 0.00 | 82 | 1020.7 |
| 20260906060044 | 57 | 347 | 16.0 | 25.0 | 0.01 | 0.07 | 0.00 | 83 | 1020.7 |
| 20260906054546 | 57 | 11 | 19.0 | 27.0 | 0.01 | 0.07 | 0.07 | 83 | 1020.6 |
| 20260906053050 | 56 | 356 | 15.0 | 22.0 | 0.01 | 0.07 | 0.07 | 83 | 1020.6 |
| 20260906051545 | 56 | 3 | 18.0 | 26.0 | 0.01 | 0.07 | 0.07 | 81 | 1020.3 |
| 20260906050104 | 57 | 358 | 17.0 | 23.0 | 0.00 | 0.06 | 0.06 | 79 | 1020.3 |
| 20260906044545 | 57 | 351 | 20.0 | 27.0 | 0.00 | 0.06 | 0.06 | 79 | 1020.5 |
| 20260906043058 | 57 | 357 | 19.0 | 31.0 | 0.02 | 0.06 | 0.06 | 80 | 1020.0 |
| 20260906041544 | 56 | 345 | 19.0 | 29.0 | 0.02 | 0.06 | 0.06 | 82 | 1019.9 |
| 20260906040104 | 57 | 352 | 21.0 | 30.0 | 0.02 | 0.06 | 0.06 | 81 | 1019.8 |
| 20260906034545 | 58 | 3 | 18.0 | 25.0 | 0.02 | 0.06 | 0.06 | 78 | 1020.4 |
| 20260906033045 | 59 | 347 | 14.0 | 24.0 | 0.00 | 0.04 | 0.04 | 71 | 1021.4 |
| 20260906031542 | 59 | 353 | 16.0 | 32.0 | 0.00 | 0.04 | 0.04 | 71 | 1020.0 |
| 20260906030048 | 59 | 356 | 19.0 | 28.0 | 0.00 | 0.04 | 0.04 | 70 | 1019.3 |
| 20260906024547 | 59 | 354 | 20.0 | 29.0 | 0.00 | 0.04 | 0.04 | 69 | 1018.8 |
| 20260906023101 | 59 | 340 | 16.0 | 30.0 | 0.00 | 0.04 | 0.04 | 68 | 1018.8 |
| 20260906021544 | 60 | 14 | 14.0 | 24.0 | 0.00 | 0.04 | 0.04 | 67 | 1018.7 |
| 20260906020048 | 61 | 340 | 15.0 | 25.0 | 0.00 | 0.04 | 0.04 | 66 | 1018.9 |
| 20260906014556 | 62 | 6 | 13.0 | 20.0 | 0.00 | 0.04 | 0.04 | 63 | 1018.9 |
| 20260906013044 | 63 | 19 | 13.0 | 20.0 | 0.00 | 0.04 | 0.04 | 62 | 1018.6 |
| 20260906011553 | 63 | 14 | 14.0 | 19.0 | 0.00 | 0.04 | 0.04 | 60 | 1018.8 |
| 20260906010044 | 65 | 6 | 13.0 | 21.0 | 0.00 | 0.04 | 0.04 | 58 | 1018.7 |
| 20260906004542 | 66 | 29 | 15.0 | 22.0 | 0.00 | 0.04 | 0.04 | 55 | 1019.0 |
| 20260906003047 | 67 | 342 | 14.0 | 21.0 | 0.00 | 0.04 | 0.04 | 55 | 1019.1 |
| 20260906001544 | 66 | 27 | 15.0 | 20.0 | 0.00 | 0.04 | 0.04 | 56 | 1019.0 |
| 20260906000044 | 67 | 358 | 13.0 | 19.0 | 0.00 | 0.04 | 0.04 | 56 | 1019.4 |
| 20260905234552 | 67 | 10 | 12.0 | 18.0 | 0.00 | 0.04 | 0.04 | 54 | 1019.4 |
| 20260905233044 | 67 | 25 | 11.0 | 19.0 | 0.00 | 0.04 | 0.04 | 54 | 1019.3 |
| 20260905231547 | 69 | 45 | 12.0 | 19.0 | 0.00 | 0.04 | 0.04 | 52 | 1019.1 |